This is the latest recevied weather packets stored in our database for station/object K3RUP-1. If no packets are shown the sender has not sent any weather packets the latest 1 day(s).
| Time | Temp. | Humidity | Pressure | Rain* | Wind** | Luminosity | Snow |
|---|---|---|---|---|---|---|---|
| 1836274663 | 20.56° C | 94% | 1017.3 hPa | 0 mm | 0 m/s | 0 W/m² | - |
| 1836274516 | 21.11° C | 93% | 1017.3 hPa | 0 mm | 0 m/s | 0 W/m² | - |
| 1836274361 | 20.56° C | 94% | 1017.4 hPa | 0 mm | 0 m/s | 0 W/m² | - |
| 1836274214 | 20.56° C | 94% | 1017.5 hPa | 0 mm | 0 m/s | 0 W/m² | - |
| 1836274059 | 20.56° C | 93% | 1017.4 hPa | 0 mm | 0 m/s | 0 W/m² | - |
| 1778057526 | 18.33° C | 80% | 1009.3 hPa | 0 mm | 0 m/s | 0 W/m² | - |
| 1778057222 | 18.33° C | 79% | 1009.1 hPa | 0 mm | 0 m/s | 0 W/m² | - |
| 1778056919 | 18.33° C | 79% | 1009.2 hPa | 0 mm | 0 m/s | 0 W/m² | - |
| 1778056616 | 18.89° C | 78% | 1009.2 hPa | 0 mm | 0 m/s | 0 W/m² | - |
| 1778056314 | 18.89° C | 78% | 1009.3 hPa | 0 mm | 0 m/s | 0 W/m² | - |
| 1778056010 | 18.89° C | 77% | 1009.3 hPa | 0 mm | 0 m/s | 0 W/m² | - |
| 1778055705 | 18.89° C | 76% | 1009.1 hPa | 0 mm | 0 m/s | 0 W/m² | - |
| 1778055403 | 18.89° C | 76% | 1009.1 hPa | 0 mm | 0 m/s | 0 W/m² | - |
| 1778055101 | 18.89° C | 76% | 1009.1 hPa | 0 mm | 0 m/s | 0 W/m² | - |
| 1778054799 | 18.89° C | 76% | 1009 hPa | 0 mm | 0 m/s | 0 W/m² | - |
| 1778054495 | 19.44° C | 76% | 1009.2 hPa | 0 mm | 0 m/s | 0 W/m² | - |
| 1778054193 | 19.44° C | 76% | 1009.3 hPa | 0 mm | 0 m/s | 0 W/m² | - |
| 1778053889 | 19.44° C | 75% | 1009.3 hPa | 0 mm | 0 m/s | 0 W/m² | - |
| 1778053587 | 19.44° C | 75% | 1009.2 hPa | 0 mm | 0 m/s | 0 W/m² | - |
| 1778053284 | 19.44° C | 75% | 1009.5 hPa | 0 mm | 0 m/s | 0 W/m² | - |
| 1778052982 | 20° C | 74% | 1009.5 hPa | 0 mm | 0 m/s | 0 W/m² | - |
| 1778052679 | 20° C | 74% | 1009.4 hPa | 0 mm | 0 m/s | 0 W/m² | - |
| 1778052375 | 20° C | 74% | 1009.3 hPa | 0 mm | 0 m/s | 0 W/m² | - |
| 1778052074 | 20° C | 74% | 1009.6 hPa | 0 mm | 0 m/s | 0 W/m² | - |
| 1778051771 | 20° C | 73% | 1009.4 hPa | 0 mm | 0 m/s | 0 W/m² | - |
* Rain latest hour (hover to see other rain measurements)
** Current wind speed in m/s (hover to see current wind gust speed)